Offutt AFB, NE

8:13 AM CST on February 25, 2017 (GMT -0600)
Offutt Air Force Base

Weather History for KOFF - January, 2013

Change the Weather History Date:

Wednesday, January 23, 2013

  Actual Average Record
Temperature  
Mean Temperature 18 °F -  
Max Temperature 30 °F 31 °F 59 °F (2004)
Min Temperature 7 °F 14 °F -9 °F (2003)
Degree Days  
Heating Degree Days 46    
Moisture  
Dew Point 9 °F    
Average Humidity 70    
Maximum Humidity 88    
Minimum Humidity 54    
Precipitation  
Precipitation 0.00 in - - ()
Sea Level Pressure  
Sea Level Pressure 30.35 in    
Wind  
Wind Speed 7 mph (North)    
Max Wind Speed 16 mph    
Max Gust Speed 23 mph    
Visibility 10 miles    
Events Snow    
Averages and records for this station are not official NWS values.
T = Trace of Precipitation, MM = Missing Value Source: NWS Daily Summary

Daily Weather History Graph

Daily Weather History Graph

Search for Another Location

Airport or City:

Trip Planner

Search our weather history database for the weather conditions in past years. The results will help you decide how hot, cold, wet, or windy it might be!

Date:

Astronomy

Jan. 23, 2013 Rise Set
Actual Time 7:41 AM CST 5:29 PM CST
Civil Twilight 7:12 AM CST 5:59 PM CST
Nautical Twilight 6:38 AM CST 6:32 PM CST
Astronomical Twilight 6:06 AM CST 7:05 PM CST
Moon 2:40 PM CST (1/23) 4:54 AM CST (1/23)
Length of Visible Light 10h 47m
Length of Day
9h 47m
Waxing Gibbous, 89% of the Moon is Illuminated
Jan 23
Waxing Gibbous
Jan 26
Full
Feb 3
Last Quarter
Feb 10
New
Feb 17
First Quarter

Hourly Weather History & Observations

Time (CST) Temp. Windchill Dew Point Humidity Pressure Visibility Wind Dir Wind Speed Gust Speed Precip Events Conditions
12:29 AM 10.4 °F 0.8 °F 6.8 °F 85% 30.30 in 10.0 mi ESE 5.8 mph - N/A Snow Light Snow
12:39 AM 12.2 °F 2.9 °F 6.8 °F 79% 30.30 in 10.0 mi ESE 5.8 mph - N/A   Clear
12:55 AM 12.0 °F 2.7 °F 6.4 °F 78% 30.30 in 10.0 mi ESE 5.8 mph - 0.00 in   Clear
1:55 AM 11.8 °F 3.9 °F 6.6 °F 80% 30.28 in 10.0 mi SE 4.6 mph - N/A   Clear
2:55 AM 10.8 °F 1.2 °F 6.4 °F 83% 30.27 in 10.0 mi SSE 5.8 mph - N/A   Clear
3:55 AM 7.7 °F -0.9 °F 4.6 °F 87% 30.26 in 10.0 mi SE 4.6 mph - N/A   Clear
4:55 AM 10.0 °F 1.8 °F 6.1 °F 84% 30.24 in 10.0 mi SE 4.6 mph - N/A   Clear
5:55 AM 8.2 °F - 5.0 °F 87% 30.23 in 10.0 mi Calm Calm - N/A   Clear
6:55 AM 9.0 °F - 6.1 °F 88% 30.25 in 10.0 mi Calm Calm - N/A   Clear
7:55 AM 9.1 °F - 6.1 °F 87% 30.25 in 10.0 mi Calm Calm - N/A   Clear
8:55 AM 14.4 °F 8.6 °F 10.6 °F 85% 30.26 in 10.0 mi WNW 3.5 mph - N/A   Clear
9:55 AM 20.1 °F 12.3 °F 13.5 °F 75% 30.30 in 10.0 mi West 5.8 mph - N/A   Clear
10:55 AM 26.1 °F 16.8 °F 15.4 °F 64% 30.30 in 10.0 mi North 9.2 mph - N/A   Clear
11:55 AM 27.1 °F 16.4 °F 16.5 °F 64% 30.31 in 10.0 mi NNW 12.7 mph 17.3 mph N/A   Clear
12:55 PM 29.7 °F 19.6 °F 16.9 °F 59% 30.31 in 10.0 mi NNW 12.7 mph - N/A   Clear
1:55 PM 30.9 °F 21.7 °F 17.2 °F 57% 30.31 in 10.0 mi NNW 11.5 mph 20.7 mph N/A   Clear
2:55 PM 30.6 °F 21.2 °F 16.7 °F 56% 30.33 in 10.0 mi NNW 11.5 mph - N/A   Clear
3:55 PM 29.8 °F 20.9 °F 16.9 °F 59% 30.34 in 10.0 mi North 10.4 mph - N/A   Clear
4:55 PM 28.0 °F 18.1 °F 13.6 °F 55% 30.38 in 10.0 mi NNW 11.5 mph - N/A   Clear
5:55 PM 24.4 °F 11.5 °F 12.7 °F 61% 30.41 in 10.0 mi North 16.1 mph 20.7 mph N/A   Clear
6:55 PM 22.6 °F 9.6 °F 12.7 °F 66% 30.44 in 10.0 mi North 15.0 mph 23.0 mph N/A   Clear
7:55 PM 20.1 °F 8.1 °F 7.9 °F 59% 30.48 in 10.0 mi NNW 11.5 mph 20.7 mph N/A   Clear
8:55 PM 17.6 °F 6.4 °F 5.2 °F 58% 30.50 in 10.0 mi North 9.2 mph - N/A   Clear
9:55 PM 15.6 °F 2.5 °F 1.6 °F 54% 30.51 in 10.0 mi NNE 11.5 mph - N/A   Clear
10:55 PM 12.9 °F 1.6 °F 0.1 °F 57% 30.54 in 10.0 mi North 8.1 mph - N/A   Clear
11:55 PM 10.6 °F -2.2 °F -0.4 °F 61% 30.57 in 10.0 mi North 9.2 mph - N/A   Clear